TimeCDT,TemperatureF,Dew PointF,Humidity,Sea Level PressureIn,VisibilityMPH,Wind Direction,Wind SpeedMPH,Gust SpeedMPH,PrecipitationIn,Events,Conditions,WindDirDegrees,DateUTC
12:15 AM,57.2,51.8,82,29.78,10.0,South,13.8,19.6,N/A,,Partly Cloudy,190,2013-04-08 05:15:00
12:35 AM,59.0,53.6,82,29.78,10.0,South,10.4,-,N/A,,Mostly Cloudy,190,2013-04-08 05:35:00
12:55 AM,60.8,53.6,77,29.79,10.0,South,13.8,19.6,N/A,,Overcast,190,2013-04-08 05:55:00
1:15 AM,60.8,53.6,77,29.79,10.0,South,10.4,17.3,N/A,,Overcast,180,2013-04-08 06:15:00
1:35 AM,60.8,53.6,77,29.79,10.0,SSW,12.7,-,N/A,,Overcast,200,2013-04-08 06:35:00
1:55 AM,62.6,53.6,72,29.79,10.0,SSW,12.7,19.6,N/A,,Overcast,200,2013-04-08 06:55:00
2:15 AM,62.6,53.6,72,29.77,10.0,South,15.0,24.2,N/A,,Mostly Cloudy,180,2013-04-08 07:15:00
2:35 AM,60.8,53.6,77,29.76,10.0,South,13.8,19.6,N/A,,Clear,180,2013-04-08 07:35:00
2:55 AM,60.8,53.6,77,29.76,10.0,South,12.7,17.3,N/A,,Clear,180,2013-04-08 07:55:00
3:15 AM,60.8,53.6,77,29.76,10.0,South,8.1,-,N/A,,Partly Cloudy,180,2013-04-08 08:15:00
3:35 AM,60.8,53.6,77,29.76,10.0,South,9.2,-,N/A,,Mostly Cloudy,180,2013-04-08 08:35:00
3:55 AM,60.8,53.6,77,29.76,10.0,South,6.9,-,N/A,,Overcast,180,2013-04-08 08:55:00
4:15 AM,60.8,53.6,77,29.77,10.0,South,9.2,-,N/A,,Overcast,180,2013-04-08 09:15:00
4:35 AM,60.8,53.6,77,29.75,10.0,South,10.4,-,N/A,,Mostly Cloudy,180,2013-04-08 09:35:00
4:55 AM,60.8,53.6,77,29.75,10.0,South,9.2,-,N/A,,Clear,180,2013-04-08 09:55:00
5:15 AM,59.0,53.6,82,29.75,10.0,South,10.4,-,N/A,,Clear,190,2013-04-08 10:15:00
5:35 AM,59.0,51.8,77,29.76,10.0,South,9.2,-,N/A,,Clear,190,2013-04-08 10:35:00
5:55 AM,59.0,51.8,77,29.77,10.0,South,10.4,-,N/A,,Clear,180,2013-04-08 10:55:00
6:15 AM,59.0,51.8,77,29.77,10.0,South,8.1,-,N/A,,Clear,180,2013-04-08 11:15:00
6:35 AM,57.2,51.8,82,29.77,10.0,South,8.1,-,N/A,,Clear,170,2013-04-08 11:35:00
6:55 AM,57.2,51.8,82,29.77,10.0,SSW,5.8,-,N/A,,Clear,210,2013-04-08 11:55:00
7:15 AM,57.2,51.8,82,29.78,10.0,South,9.2,-,N/A,,Clear,180,2013-04-08 12:15:00
7:35 AM,59.0,51.8,77,29.78,10.0,South,8.1,-,N/A,,Clear,170,2013-04-08 12:35:00
7:55 AM,59.0,51.8,77,29.79,10.0,South,6.9,-,N/A,,Clear,170,2013-04-08 12:55:00
8:15 AM,60.8,53.6,77,29.79,10.0,South,6.9,-,N/A,,Clear,170,2013-04-08 13:15:00
8:35 AM,62.6,53.6,72,29.79,10.0,South,8.1,-,N/A,,Clear,180,2013-04-08 13:35:00
8:55 AM,62.6,53.6,72,29.80,10.0,South,10.4,-,N/A,,Clear,180,2013-04-08 13:55:00
9:15 AM,64.4,53.6,68,29.80,10.0,South,9.2,-,N/A,,Partly Cloudy,190,2013-04-08 14:15:00
9:35 AM,64.4,53.6,68,29.80,10.0,SSW,10.4,-,N/A,,Clear,200,2013-04-08 14:35:00
9:55 AM,66.2,55.4,68,29.81,10.0,SW,10.4,-,N/A,,Partly Cloudy,220,2013-04-08 14:55:00
10:15 AM,68.0,55.4,64,29.82,10.0,SW,11.5,17.3,N/A,,Scattered Clouds,220,2013-04-08 15:15:00
10:35 AM,68.0,53.6,60,29.81,10.0,SSW,12.7,-,N/A,,Mostly Cloudy,210,2013-04-08 15:35:00
10:55 AM,69.8,55.4,60,29.81,10.0,SW,11.5,-,N/A,,Mostly Cloudy,220,2013-04-08 15:55:00
11:15 AM,71.6,55.4,57,29.81,10.0,SSW,11.5,-,N/A,,Mostly Cloudy,200,2013-04-08 16:15:00
11:35 AM,73.4,53.6,50,29.80,10.0,SSW,10.4,-,N/A,,Partly Cloudy,200,2013-04-08 16:35:00
11:55 AM,73.4,53.6,50,29.80,10.0,SSW,15.0,-,N/A,,Partly Cloudy,200,2013-04-08 16:55:00
12:15 PM,73.4,51.8,47,29.80,10.0,SSW,8.1,-,N/A,,Partly Cloudy,200,2013-04-08 17:15:00
12:35 PM,75.2,53.6,47,29.80,10.0,SSW,15.0,-,N/A,,Clear,200,2013-04-08 17:35:00
12:55 PM,73.4,53.6,50,29.80,10.0,South,13.8,19.6,N/A,,Clear,180,2013-04-08 17:55:00
1:15 PM,73.4,53.6,50,29.79,10.0,South,12.7,-,N/A,,Clear,190,2013-04-08 18:15:00
1:55 PM,73.4,53.6,50,29.79,10.0,South,12.7,18.4,N/A,,Clear,170,2013-04-08 18:55:00
2:15 PM,73.4,55.4,53,29.80,10.0,South,12.7,19.6,N/A,,Clear,190,2013-04-08 19:15:00
2:35 PM,75.2,55.4,50,29.79,10.0,SSE,11.5,17.3,N/A,,Clear,160,2013-04-08 19:35:00
2:55 PM,75.2,53.6,47,29.79,10.0,SSE,12.7,21.9,N/A,,Clear,160,2013-04-08 19:55:00
3:15 PM,-9999,-9999,N/A,-9999,-9999.0,North,-9999.0,-,N/A,,Unknown,0,2013-04-08 20:15:00
3:35 PM,-9999,-9999,N/A,-9999,-9999.0,North,-9999.0,-,N/A,,Unknown,0,2013-04-08 20:35:00
3:55 PM,-9999,-9999,N/A,-9999,-9999.0,North,-9999.0,-,N/A,,Unknown,0,2013-04-08 20:55:00
4:15 PM,-9999,-9999,N/A,-9999,-9999.0,North,-9999.0,-,N/A,,Unknown,0,2013-04-08 21:15:00
4:35 PM,-9999,-9999,N/A,-9999,-9999.0,North,-9999.0,-,N/A,,Unknown,0,2013-04-08 21:35:00
4:55 PM,-9999,-9999,N/A,-9999,-9999.0,North,-9999.0,-,N/A,,Unknown,0,2013-04-08 21:55:00
5:15 PM,-9999,-9999,N/A,-9999,-9999.0,North,-9999.0,-,N/A,,Unknown,0,2013-04-08 22:15:00
5:35 PM,-9999,-9999,N/A,-9999,-9999.0,North,-9999.0,-,N/A,,Unknown,0,2013-04-08 22:35:00
5:55 PM,-9999,-9999,N/A,-9999,-9999.0,North,-9999.0,-,N/A,,Unknown,0,2013-04-08 22:55:00
6:15 PM,-9999,-9999,N/A,-9999,-9999.0,North,-9999.0,-,N/A,,Unknown,0,2013-04-08 23:15:00
6:35 PM,-9999,-9999,N/A,-9999,-9999.0,North,-9999.0,-,N/A,,Unknown,0,2013-04-08 23:35:00
6:55 PM,-9999,-9999,N/A,-9999,-9999.0,North,-9999.0,-,N/A,,Unknown,0,2013-04-08 23:55:00
7:15 PM,-9999,-9999,N/A,-9999,-9999.0,North,-9999.0,-,N/A,,Unknown,0,2013-04-09 00:15:00
7:35 PM,-9999,-9999,N/A,-9999,-9999.0,North,-9999.0,-,N/A,,Unknown,0,2013-04-09 00:35:00
7:55 PM,-9999,-9999,N/A,-9999,-9999.0,North,-9999.0,-,N/A,,Unknown,0,2013-04-09 00:55:00
8:15 PM,-9999,-9999,N/A,-9999,-9999.0,North,-9999.0,-,N/A,,Unknown,0,2013-04-09 01:15:00
8:35 PM,-9999,-9999,N/A,-9999,-9999.0,North,-9999.0,-,N/A,,Unknown,0,2013-04-09 01:35:00
8:55 PM,-9999,-9999,N/A,-9999,-9999.0,North,-9999.0,-,N/A,,Unknown,0,2013-04-09 01:55:00
9:15 PM,69.8,55.4,60,29.82,-9999.0,South,9.2,-,N/A,,Unknown,170,2013-04-09 02:15:00
9:35 PM,69.8,55.4,60,29.84,10.0,South,6.9,-,N/A,,Overcast,180,2013-04-09 02:35:00
9:55 PM,69.8,55.4,60,29.84,10.0,SSE,5.8,-,N/A,,Overcast,160,2013-04-09 02:55:00
10:15 PM,68.0,55.4,64,29.85,10.0,SSE,4.6,-,N/A,,Overcast,160,2013-04-09 03:15:00
10:35 PM,68.0,55.4,64,29.84,10.0,SSE,5.8,-,N/A,,Overcast,150,2013-04-09 03:35:00
10:55 PM,66.2,55.4,68,29.84,10.0,SE,8.1,-,N/A,,Mostly Cloudy,140,2013-04-09 03:55:00
11:15 PM,-9999,-9999,N/A,29.83,-9999.0,SE,5.8,-,N/A,,Unknown,130,2013-04-09 04:15:00
11:35 PM,66.2,55.4,68,29.84,10.0,ESE,6.9,-,N/A,,Mostly Cloudy,120,2013-04-09 04:35:00
11:55 PM,66.2,55.4,68,29.83,10.0,SE,8.1,-,N/A,,Mostly Cloudy,130,2013-04-09 04:55:00